Time,TemperatureF,DewpointF,PressureIn,WindDirection,WindDirectionDegrees,WindSpeedMPH,WindSpeedGustMPH,Humidity,HourlyPrecipIn,Conditions,Clouds,dailyrainin,SoftwareType,DateUTC
2013-01-29 00:00:00,31.3,28.8,29.83,SW,225,0.0,0.9,90,0.00,,,0.00,WUHU216HW,2013-01-29 08:00:00,
2013-01-29 00:05:00,31.3,28.8,29.82,SW,225,0.0,0.9,90,0.00,,,0.00,WUHU216HW,2013-01-29 08:05:00,
2013-01-29 00:10:00,31.3,28.8,29.82,SW,225,0.0,0.4,90,0.00,,,0.00,WUHU216HW,2013-01-29 08:10:00,
2013-01-29 00:16:00,31.1,28.6,29.82,SW,225,0.0,0.4,90,0.00,,,0.00,WUHU216HW,2013-01-29 08:16:00,
2013-01-29 00:21:00,31.1,28.6,29.82,SW,225,0.0,0.0,90,0.00,,,0.00,WUHU216HW,2013-01-29 08:21:00,
2013-01-29 00:26:00,31.3,28.8,29.82,SW,225,0.0,0.0,90,0.00,,,0.00,WUHU216HW,2013-01-29 08:26:00,
2013-01-29 00:31:00,31.3,28.8,29.81,SW,225,0.0,0.0,90,0.00,,,0.00,WUHU216HW,2013-01-29 08:31:00,
2013-01-29 00:36:00,31.3,28.8,29.81,SW,225,0.0,0.4,90,0.00,,,0.00,WUHU216HW,2013-01-29 08:36:00,
2013-01-29 00:41:00,31.3,28.8,29.81,SW,225,0.0,0.4,90,0.00,,,0.00,WUHU216HW,2013-01-29 08:41:00,
2013-01-29 00:46:00,31.3,28.8,29.81,SW,225,0.0,0.0,90,0.00,,,0.00,WUHU216HW,2013-01-29 08:46:00,
2013-01-29 00:51:00,31.3,28.8,29.81,SW,225,0.0,0.0,90,0.00,,,0.00,WUHU216HW,2013-01-29 08:51:00,
2013-01-29 00:57:00,31.3,28.8,29.81,SW,225,0.0,0.0,90,0.00,,,0.00,WUHU216HW,2013-01-29 08:57:00,
2013-01-29 01:02:00,31.3,28.8,29.81,SW,225,0.0,0.0,90,0.00,,,0.00,WUHU216HW,2013-01-29 09:02:00,
2013-01-29 01:07:00,31.3,28.8,29.80,SW,225,0.0,0.0,90,0.00,,,0.00,WUHU216HW,2013-01-29 09:07:00,
2013-01-29 01:12:00,31.3,28.8,29.80,SW,225,0.0,0.0,90,0.00,,,0.00,WUHU216HW,2013-01-29 09:12:00,
2013-01-29 01:17:00,31.3,28.8,29.80,SW,225,0.0,0.0,90,0.00,,,0.00,WUHU216HW,2013-01-29 09:17:00,
2013-01-29 01:22:00,31.3,28.8,29.80,SW,225,0.0,0.0,90,0.00,,,0.00,WUHU216HW,2013-01-29 09:22:00,
2013-01-29 01:28:00,31.3,28.8,29.80,SW,225,0.0,0.0,90,0.00,,,0.00,WUHU216HW,2013-01-29 09:28:00,
2013-01-29 01:33:00,31.3,28.8,29.81,SW,225,0.0,0.0,90,0.00,,,0.00,WUHU216HW,2013-01-29 09:33:00,
2013-01-29 01:38:00,31.3,28.8,29.82,SW,225,0.0,0.4,90,0.00,,,0.00,WUHU216HW,2013-01-29 09:38:00,
2013-01-29 01:43:00,31.3,28.8,29.82,SW,225,0.0,0.4,90,0.00,,,0.00,WUHU216HW,2013-01-29 09:43:00,
2013-01-29 01:48:00,31.3,28.8,29.83,SW,225,0.0,0.0,90,0.00,,,0.00,WUHU216HW,2013-01-29 09:48:00,
2013-01-29 01:53:00,31.3,28.8,29.83,SW,225,0.0,0.0,90,0.00,,,0.00,WUHU216HW,2013-01-29 09:53:00,
2013-01-29 01:58:00,31.3,28.8,29.84,SW,225,0.0,0.0,90,0.00,,,0.00,WUHU216HW,2013-01-29 09:58:00,
2013-01-29 02:03:00,31.5,29.0,29.84,SW,225,0.0,0.0,90,0.00,,,0.00,WUHU216HW,2013-01-29 10:03:00,
2013-01-29 02:09:00,31.5,29.3,29.84,SW,225,0.0,0.0,91,0.00,,,0.00,WUHU216HW,2013-01-29 10:09:00,
2013-01-29 02:14:00,31.5,29.3,29.84,SW,225,0.0,0.0,91,0.00,,,0.00,WUHU216HW,2013-01-29 10:14:00,
2013-01-29 02:19:00,31.5,29.3,29.84,SW,225,0.0,0.0,91,0.00,,,0.00,WUHU216HW,2013-01-29 10:19:00,
2013-01-29 02:24:00,31.5,29.0,29.85,SW,225,0.0,0.0,90,0.00,,,0.00,WUHU216HW,2013-01-29 10:24:00,
2013-01-29 02:29:00,31.5,29.3,29.85,SW,225,0.0,0.0,91,0.00,,,0.00,WUHU216HW,2013-01-29 10:29:00,
2013-01-29 02:34:00,31.5,29.0,29.86,SW,225,0.0,0.0,90,0.00,,,0.00,WUHU216HW,2013-01-29 10:34:00,
2013-01-29 02:39:00,31.5,29.3,29.86,SW,225,0.0,0.0,91,0.00,,,0.00,WUHU216HW,2013-01-29 10:39:00,
2013-01-29 02:44:00,31.5,29.3,29.86,SW,225,0.0,0.0,91,0.00,,,0.00,WUHU216HW,2013-01-29 10:44:00,
2013-01-29 02:50:00,31.7,29.4,29.86,SW,225,0.0,0.0,91,0.00,,,0.00,WUHU216HW,2013-01-29 10:50:00,
2013-01-29 02:55:00,31.7,29.4,29.85,SW,225,0.0,0.0,91,0.00,,,0.00,WUHU216HW,2013-01-29 10:55:00,
2013-01-29 03:00:00,31.7,29.4,29.85,SW,225,0.0,0.0,91,0.00,,,0.00,WUHU216HW,2013-01-29 11:00:00,
2013-01-29 03:05:00,31.7,29.4,29.84,SW,225,0.0,0.0,91,0.00,,,0.00,WUHU216HW,2013-01-29 11:05:00,
2013-01-29 03:10:00,31.7,29.4,29.84,SW,225,0.0,0.0,91,0.00,,,0.00,WUHU216HW,2013-01-29 11:10:00,
2013-01-29 03:15:00,31.7,29.4,29.85,SW,225,0.0,0.0,91,0.00,,,0.00,WUHU216HW,2013-01-29 11:15:00,
2013-01-29 03:20:00,31.7,29.4,29.86,SW,225,0.0,0.0,91,0.00,,,0.00,WUHU216HW,2013-01-29 11:20:00,
2013-01-29 03:25:00,31.7,29.4,29.86,SW,225,0.0,0.0,91,0.00,,,0.00,WUHU216HW,2013-01-29 11:25:00,
2013-01-29 03:31:00,31.7,29.4,29.85,SW,225,0.0,0.0,91,0.00,,,0.00,WUHU216HW,2013-01-29 11:31:00,
2013-01-29 03:36:00,31.7,29.4,29.85,SW,225,0.0,0.0,91,0.00,,,0.00,WUHU216HW,2013-01-29 11:36:00,
2013-01-29 03:41:00,31.7,29.4,29.84,SW,225,0.0,0.0,91,0.00,,,0.00,WUHU216HW,2013-01-29 11:41:00,
2013-01-29 03:46:00,31.7,29.4,29.85,SW,225,0.0,0.0,91,0.00,,,0.00,WUHU216HW,2013-01-29 11:46:00,
2013-01-29 03:51:00,31.9,29.6,29.87,SW,225,0.0,0.4,91,0.00,,,0.00,WUHU216HW,2013-01-29 11:51:00,
2013-01-29 03:56:00,31.9,29.6,29.86,SW,225,0.0,0.4,91,0.00,,,0.00,WUHU216HW,2013-01-29 11:56:00,
2013-01-29 04:01:00,31.9,29.6,29.87,SW,225,0.0,0.0,91,0.00,,,0.00,WUHU216HW,2013-01-29 12:01:00,
2013-01-29 04:07:00,31.9,29.3,29.88,SW,225,0.0,0.0,90,0.00,,,0.00,WUHU216HW,2013-01-29 12:07:00,
2013-01-29 04:12:00,31.7,29.4,29.88,SW,225,0.0,0.0,91,0.00,,,0.00,WUHU216HW,2013-01-29 12:12:00,
2013-01-29 04:17:00,31.7,29.4,29.89,SW,225,0.0,0.0,91,0.00,,,0.00,WUHU216HW,2013-01-29 12:17:00,
2013-01-29 04:22:00,31.7,29.4,29.89,SW,225,0.0,0.0,91,0.00,,,0.00,WUHU216HW,2013-01-29 12:22:00,
2013-01-29 04:27:00,31.7,29.4,29.90,SW,225,0.0,0.0,91,0.00,,,0.00,WUHU216HW,2013-01-29 12:27:00,
2013-01-29 04:32:00,31.7,29.4,29.90,SW,225,0.0,0.0,91,0.00,,,0.00,WUHU216HW,2013-01-29 12:32:00,
2013-01-29 04:37:00,31.7,29.4,29.89,SW,225,0.0,0.0,91,0.00,,,0.00,WUHU216HW,2013-01-29 12:37:00,
2013-01-29 04:42:00,31.9,29.6,29.90,SW,225,0.0,0.0,91,0.00,,,0.00,WUHU216HW,2013-01-29 12:42:00,
2013-01-29 04:48:00,31.9,29.6,29.90,SW,225,0.0,0.0,91,0.00,,,0.00,WUHU216HW,2013-01-29 12:48:00,
2013-01-29 04:53:00,31.9,29.6,29.90,SW,225,0.0,0.0,91,0.00,,,0.00,WUHU216HW,2013-01-29 12:53:00,
2013-01-29 04:58:00,31.9,29.6,29.90,SW,225,0.0,0.4,91,0.00,,,0.00,WUHU216HW,2013-01-29 12:58:00,
2013-01-29 05:03:00,31.9,29.6,29.91,SW,225,0.0,0.4,91,0.00,,,0.00,WUHU216HW,2013-01-29 13:03:00,
2013-01-29 05:08:00,31.9,29.6,29.91,SW,225,0.0,0.0,91,0.00,,,0.00,WUHU216HW,2013-01-29 13:08:00,
2013-01-29 05:13:00,31.9,29.6,29.91,SW,225,0.0,0.0,91,0.00,,,0.00,WUHU216HW,2013-01-29 13:13:00,
2013-01-29 05:18:00,31.9,29.6,29.91,SW,225,0.0,0.0,91,0.00,,,0.00,WUHU216HW,2013-01-29 13:18:00,
2013-01-29 05:23:00,31.9,29.3,29.91,SW,225,0.0,0.0,90,0.00,,,0.00,WUHU216HW,2013-01-29 13:23:00,
2013-01-29 05:28:00,31.9,29.6,29.91,SW,225,0.0,1.1,91,0.00,,,0.00,WUHU216HW,2013-01-29 13:28:00,
2013-01-29 05:34:00,31.9,29.3,29.92,SW,225,0.0,1.1,90,0.00,,,0.00,WUHU216HW,2013-01-29 13:34:00,
2013-01-29 05:39:00,31.9,29.3,29.92,SW,225,0.2,0.4,90,0.00,,,0.00,WUHU216HW,2013-01-29 13:39:00,
2013-01-29 05:44:00,31.7,29.2,29.92,SW,225,0.4,1.3,90,0.00,,,0.00,WUHU216HW,2013-01-29 13:44:00,
2013-01-29 05:49:00,31.7,29.2,29.93,SW,225,0.4,1.3,90,0.00,,,0.00,WUHU216HW,2013-01-29 13:49:00,
2013-01-29 05:54:00,31.7,29.2,29.93,SW,225,0.0,1.1,90,0.00,,,0.00,WUHU216HW,2013-01-29 13:54:00,
2013-01-29 05:59:00,31.7,29.2,29.93,SW,225,0.4,1.1,90,0.00,,,0.00,WUHU216HW,2013-01-29 13:59:00,
2013-01-29 06:04:00,31.7,29.2,29.94,SW,225,0.0,0.9,90,0.00,,,0.00,WUHU216HW,2013-01-29 14:04:00,
2013-01-29 06:10:00,31.5,29.0,29.94,SW,225,0.0,0.9,90,0.00,,,0.00,WUHU216HW,2013-01-29 14:10:00,
2013-01-29 06:15:00,31.5,29.0,29.94,SW,225,0.0,0.9,90,0.00,,,0.00,WUHU216HW,2013-01-29 14:15:00,
2013-01-29 06:20:00,31.5,29.0,29.94,SW,225,0.4,0.4,90,0.00,,,0.00,WUHU216HW,2013-01-29 14:20:00,
2013-01-29 06:25:00,31.5,29.0,29.95,SW,225,0.4,1.3,90,0.00,,,0.00,WUHU216HW,2013-01-29 14:25:00,
2013-01-29 06:30:00,31.5,29.0,29.96,SW,225,1.1,1.3,90,0.00,,,0.00,WUHU216HW,2013-01-29 14:30:00,
2013-01-29 06:35:00,31.5,29.0,29.95,SW,225,0.9,2.0,90,0.00,,,0.00,WUHU216HW,2013-01-29 14:35:00,
2013-01-29 06:40:00,31.5,29.0,29.95,SW,225,1.8,2.0,90,0.00,,,0.00,WUHU216HW,2013-01-29 14:40:00,
2013-01-29 06:45:00,31.3,28.8,29.95,SW,225,0.4,2.0,90,0.00,,,0.00,WUHU216HW,2013-01-29 14:45:00,
2013-01-29 06:51:00,31.3,28.8,29.95,SW,225,0.0,2.0,90,0.00,,,0.00,WUHU216HW,2013-01-29 14:51:00,
2013-01-29 06:56:00,31.3,28.8,29.96,SW,225,0.0,2.0,90,0.00,,,0.00,WUHU216HW,2013-01-29 14:56:00,
2013-01-29 07:01:00,31.3,28.8,29.96,SW,225,0.2,1.1,90,0.00,,,0.00,WUHU216HW,2013-01-29 15:01:00,
2013-01-29 07:06:00,31.1,28.6,29.97,SW,225,0.7,1.1,90,0.00,,,0.00,WUHU216HW,2013-01-29 15:06:00,
2013-01-29 07:11:00,31.1,28.6,29.97,SW,225,0.0,1.1,90,0.00,,,0.00,WUHU216HW,2013-01-29 15:11:00,
2013-01-29 07:16:00,31.1,28.6,29.98,SW,225,0.4,1.1,90,0.00,,,0.00,WUHU216HW,2013-01-29 15:16:00,
2013-01-29 07:21:00,31.0,28.4,29.98,SW,225,0.7,0.9,90,0.00,,,0.00,WUHU216HW,2013-01-29 15:21:00,
2013-01-29 07:26:00,31.0,28.4,29.98,SW,225,0.4,0.7,90,0.00,,,0.00,WUHU216HW,2013-01-29 15:26:00,
2013-01-29 07:32:00,31.0,28.4,29.99,SW,225,0.0,0.7,90,0.00,,,0.00,WUHU216HW,2013-01-29 15:32:00,
2013-01-29 07:37:00,31.0,28.4,29.99,SW,225,0.0,0.7,90,0.00,,,0.00,WUHU216HW,2013-01-29 15:37:00,
2013-01-29 07:42:00,31.0,28.4,29.99,SW,225,0.7,1.1,90,0.00,,,0.00,WUHU216HW,2013-01-29 15:42:00,
2013-01-29 07:47:00,31.0,28.4,30.00,SW,225,0.9,3.6,90,0.00,,,0.00,WUHU216HW,2013-01-29 15:47:00,
2013-01-29 07:52:00,31.0,28.4,30.00,SW,225,0.2,3.6,90,0.00,,,0.00,WUHU216HW,2013-01-29 15:52:00,
2013-01-29 07:57:00,31.0,28.4,30.00,SW,225,0.9,1.6,90,0.00,,,0.00,WUHU216HW,2013-01-29 15:57:00,
2013-01-29 08:02:00,31.0,28.2,30.00,SW,225,0.0,1.1,89,0.00,,,0.00,WUHU216HW,2013-01-29 16:02:00,
2013-01-29 08:08:00,31.1,28.4,30.00,SW,225,0.7,1.8,89,0.00,,,0.00,WUHU216HW,2013-01-29 16:08:00,
2013-01-29 08:13:00,31.1,28.4,30.00,SW,225,0.0,1.8,89,0.00,,,0.00,WUHU216HW,2013-01-29 16:13:00,
2013-01-29 08:18:00,31.3,28.5,30.00,SW,225,1.1,2.0,89,0.00,,,0.00,WUHU216HW,2013-01-29 16:18:00,
2013-01-29 08:23:00,31.1,28.4,30.00,SW,225,1.1,2.0,89,0.00,,,0.00,WUHU216HW,2013-01-29 16:23:00,
2013-01-29 08:28:00,31.3,28.5,30.00,SW,225,0.0,1.6,89,0.00,,,0.00,WUHU216HW,2013-01-29 16:28:00,
2013-01-29 08:33:00,31.3,28.5,30.01,SW,225,0.0,1.6,89,0.00,,,0.00,WUHU216HW,2013-01-29 16:33:00,
2013-01-29 08:38:00,31.5,28.7,30.02,SW,225,0.2,1.6,89,0.00,,,0.00,WUHU216HW,2013-01-29 16:38:00,
2013-01-29 08:43:00,31.5,28.7,30.02,SW,225,1.1,1.8,89,0.00,,,0.00,WUHU216HW,2013-01-29 16:43:00,
2013-01-29 08:49:00,31.5,28.7,30.02,SW,225,0.7,1.8,89,0.00,,,0.00,WUHU216HW,2013-01-29 16:49:00,
2013-01-29 08:54:00,31.7,28.9,30.02,SW,225,0.4,2.5,89,0.00,,,0.00,WUHU216HW,2013-01-29 16:54:00,
2013-01-29 08:59:00,31.9,29.1,30.03,SW,225,0.2,2.5,89,0.00,,,0.00,WUHU216HW,2013-01-29 16:59:00,
2013-01-29 09:04:00,32.0,29.5,30.03,SW,225,0.0,0.9,90,0.00,,,0.00,WUHU216HW,2013-01-29 17:04:00,
2013-01-29 09:09:00,32.2,29.4,30.03,SW,225,0.0,1.1,89,0.00,,,0.00,WUHU216HW,2013-01-29 17:09:00,
2013-01-29 09:14:00,32.4,29.5,30.03,SW,225,1.3,2.0,89,0.00,,,0.00,WUHU216HW,2013-01-29 17:14:00,
2013-01-29 09:19:00,32.4,29.5,30.04,SW,225,0.0,2.0,89,0.00,,,0.00,WUHU216HW,2013-01-29 17:19:00,
2013-01-29 09:24:00,32.4,29.5,30.04,SW,225,0.7,1.3,89,0.00,,,0.00,WUHU216HW,2013-01-29 17:24:00,
2013-01-29 09:30:00,32.8,29.9,30.04,SW,225,0.4,0.9,89,0.00,,,0.00,WUHU216HW,2013-01-29 17:30:00,
2013-01-29 09:35:00,33.1,30.3,30.05,SW,225,0.0,0.9,89,0.00,,,0.00,WUHU216HW,2013-01-29 17:35:00,
2013-01-29 09:40:00,33.5,30.5,30.05,SW,225,0.0,2.0,89,0.00,,,0.00,WUHU216HW,2013-01-29 17:40:00,
2013-01-29 09:45:00,33.7,30.4,30.05,SW,225,0.4,2.0,88,0.00,,,0.00,WUHU216HW,2013-01-29 17:45:00,
2013-01-29 09:50:00,34.0,30.8,30.06,SW,225,0.0,1.1,88,0.00,,,0.00,WUHU216HW,2013-01-29 17:50:00,
2013-01-29 09:55:00,34.2,31.0,30.06,SW,225,1.1,1.3,88,0.00,,,0.00,WUHU216HW,2013-01-29 17:55:00,
2013-01-29 10:00:00,34.4,30.8,30.06,SW,225,0.4,1.8,87,0.00,,,0.00,WUHU216HW,2013-01-29 18:00:00,
2013-01-29 10:05:00,34.6,31.0,30.06,SW,225,0.2,2.0,87,0.00,,,0.00,WUHU216HW,2013-01-29 18:05:00,
2013-01-29 10:11:00,34.7,31.1,30.07,SW,225,0.4,2.0,87,0.00,,,0.00,WUHU216HW,2013-01-29 18:11:00,
2013-01-29 10:16:00,34.7,30.9,30.07,SW,225,1.1,2.0,86,0.00,,,0.00,WUHU216HW,2013-01-29 18:16:00,
2013-01-29 10:21:00,34.9,31.1,30.07,WSW,248,0.9,1.8,86,0.00,,,0.00,WUHU216HW,2013-01-29 18:21:00,
2013-01-29 10:26:00,34.9,31.1,30.07,WSW,248,0.4,1.8,86,0.00,,,0.00,WUHU216HW,2013-01-29 18:26:00,
2013-01-29 10:31:00,34.9,31.1,30.07,WSW,248,0.0,1.8,86,0.00,,,0.00,WUHU216HW,2013-01-29 18:31:00,
2013-01-29 10:36:00,35.1,31.2,30.07,WSW,248,0.0,1.1,86,0.00,,,0.00,WUHU216HW,2013-01-29 18:36:00,
2013-01-29 10:41:00,35.3,31.4,30.07,WSW,248,0.2,1.1,86,0.00,,,0.00,WUHU216HW,2013-01-29 18:41:00,
2013-01-29 10:46:00,35.3,31.1,30.07,West,270,0.0,1.8,85,0.00,,,0.00,WUHU216HW,2013-01-29 18:46:00,
2013-01-29 10:52:00,35.3,31.1,30.08,West,270,0.9,2.2,85,0.00,,,0.00,WUHU216HW,2013-01-29 18:52:00,
2013-01-29 10:57:00,35.5,31.3,30.08,NW,315,0.7,2.2,85,0.00,,,0.00,WUHU216HW,2013-01-29 18:57:00,
2013-01-29 11:02:00,35.5,31.3,30.08,West,270,0.2,3.1,85,0.00,,,0.00,WUHU216HW,2013-01-29 19:02:00,
2013-01-29 11:07:00,35.6,31.2,30.08,WNW,293,0.4,3.1,84,0.00,,,0.00,WUHU216HW,2013-01-29 19:07:00,
2013-01-29 11:12:00,35.6,31.2,30.08,NW,315,2.0,2.9,84,0.00,,,0.00,WUHU216HW,2013-01-29 19:12:00,
2013-01-29 11:17:00,35.6,31.2,30.09,West,270,1.3,2.9,84,0.00,,,0.00,WUHU216HW,2013-01-29 19:17:00,
2013-01-29 11:22:00,35.8,31.7,30.09,West,270,0.2,2.2,85,0.00,,,0.00,WUHU216HW,2013-01-29 19:22:00,
2013-01-29 11:28:00,36.0,31.9,30.09,West,270,0.2,2.2,85,0.00,,,0.00,WUHU216HW,2013-01-29 19:28:00,
2013-01-29 11:33:00,36.4,32.2,30.09,WNW,293,1.8,2.0,85,0.00,,,0.00,WUHU216HW,2013-01-29 19:33:00,
2013-01-29 11:38:00,36.4,32.0,30.09,West,270,0.7,2.5,84,0.00,,,0.00,WUHU216HW,2013-01-29 19:38:00,
2013-01-29 11:43:00,36.5,32.1,30.09,WSW,248,2.2,2.5,84,0.00,,,0.00,WUHU216HW,2013-01-29 19:43:00,
2013-01-29 11:48:00,36.5,32.1,30.09,WSW,248,0.0,2.5,84,0.00,,,0.00,WUHU216HW,2013-01-29 19:48:00,
2013-01-29 11:53:00,36.7,32.3,30.09,WSW,248,0.2,2.7,84,0.00,,,0.00,WUHU216HW,2013-01-29 19:53:00,
2013-01-29 11:58:00,36.7,32.3,30.09,WSW,248,1.1,2.7,84,0.00,,,0.00,WUHU216HW,2013-01-29 19:58:00,
2013-01-29 12:03:00,36.5,31.9,30.09,West,270,0.2,2.0,83,0.00,,,0.00,WUHU216HW,2013-01-29 20:03:00,
2013-01-29 12:09:00,36.5,31.9,30.09,WSW,248,0.0,2.0,83,0.00,,,0.00,WUHU216HW,2013-01-29 20:09:00,
2013-01-29 12:14:00,36.9,32.2,30.09,West,270,1.6,1.8,83,0.00,,,0.00,WUHU216HW,2013-01-29 20:14:00,
2013-01-29 12:19:00,36.7,32.1,30.09,WSW,248,1.3,2.7,83,0.00,,,0.00,WUHU216HW,2013-01-29 20:19:00,
2013-01-29 12:24:00,36.9,32.2,30.09,WSW,248,0.4,2.7,83,0.00,,,0.00,WUHU216HW,2013-01-29 20:24:00,
2013-01-29 12:29:00,37.1,32.4,30.09,WNW,293,1.3,2.5,83,0.00,,,0.00,WUHU216HW,2013-01-29 20:29:00,
2013-01-29 12:34:00,37.3,32.6,30.09,WNW,293,0.0,2.5,83,0.00,,,0.00,WUHU216HW,2013-01-29 20:34:00,
2013-01-29 12:39:00,37.4,32.4,30.10,WSW,248,0.2,2.0,82,0.00,,,0.00,WUHU216HW,2013-01-29 20:39:00,
2013-01-29 12:44:00,37.4,32.8,30.10,West,270,0.4,2.0,83,0.00,,,0.00,WUHU216HW,2013-01-29 20:44:00,
2013-01-29 12:50:00,37.6,33.0,30.09,WSW,248,0.0,1.6,83,0.00,,,0.00,WUHU216HW,2013-01-29 20:50:00,
2013-01-29 12:55:00,37.8,32.8,30.10,WSW,248,1.8,1.8,82,0.00,,,0.00,WUHU216HW,2013-01-29 20:55:00,
2013-01-29 13:00:00,37.8,32.8,30.10,WSW,248,1.1,2.2,82,0.00,,,0.00,WUHU216HW,2013-01-29 21:00:00,
2013-01-29 13:05:00,37.8,32.8,30.10,WSW,248,0.0,2.2,82,0.00,,,0.00,WUHU216HW,2013-01-29 21:05:00,
2013-01-29 13:10:00,38.0,32.9,30.10,WSW,248,2.9,2.9,82,0.00,,,0.00,WUHU216HW,2013-01-29 21:10:00,
2013-01-29 13:15:00,38.2,32.9,30.10,WSW,248,0.2,2.9,81,0.00,,,0.00,WUHU216HW,2013-01-29 21:15:00,
2013-01-29 13:20:00,38.2,32.9,30.10,WSW,248,3.6,3.6,81,0.00,,,0.00,WUHU216HW,2013-01-29 21:20:00,
2013-01-29 13:26:00,38.2,32.9,30.10,West,270,1.1,4.7,81,0.00,,,0.00,WUHU216HW,2013-01-29 21:26:00,
2013-01-29 13:31:00,38.5,33.2,30.10,SW,225,0.7,1.8,81,0.00,,,0.00,WUHU216HW,2013-01-29 21:31:00,
2013-01-29 13:36:00,38.5,33.2,30.11,WSW,248,0.0,2.0,81,0.00,,,0.00,WUHU216HW,2013-01-29 21:36:00,
2013-01-29 13:41:00,38.7,33.1,30.10,WSW,248,0.4,2.0,80,0.00,,,0.00,WUHU216HW,2013-01-29 21:41:00,
2013-01-29 13:46:00,38.9,33.3,30.10,WSW,248,1.3,2.2,80,0.00,,,0.00,WUHU216HW,2013-01-29 21:46:00,
2013-01-29 13:51:00,39.1,33.5,30.10,WSW,248,0.0,3.6,80,0.00,,,0.00,WUHU216HW,2013-01-29 21:51:00,
2013-01-29 13:56:00,39.1,33.5,30.10,WSW,248,1.8,3.6,80,0.00,,,0.00,WUHU216HW,2013-01-29 21:56:00,
2013-01-29 14:01:00,39.1,33.5,30.10,WSW,248,0.0,2.5,80,0.00,,,0.00,WUHU216HW,2013-01-29 22:01:00,
2013-01-29 14:06:00,39.1,33.5,30.10,WSW,248,0.0,2.5,80,0.00,,,0.00,WUHU216HW,2013-01-29 22:06:00,
2013-01-29 14:12:00,39.2,33.3,30.10,ESE,113,0.0,0.7,79,0.00,,,0.00,WUHU216HW,2013-01-29 22:12:00,
2013-01-29 14:17:00,39.2,33.7,30.10,West,270,1.8,1.8,80,0.00,,,0.00,WUHU216HW,2013-01-29 22:17:00,
2013-01-29 14:22:00,39.2,33.3,30.10,WSW,248,0.4,1.8,79,0.00,,,0.00,WUHU216HW,2013-01-29 22:22:00,
2013-01-29 14:27:00,39.1,33.1,30.10,WSW,248,1.1,2.0,79,0.00,,,0.00,WUHU216HW,2013-01-29 22:27:00,
2013-01-29 14:32:00,39.1,33.1,30.10,WNW,293,1.1,2.5,79,0.00,,,0.00,WUHU216HW,2013-01-29 22:32:00,
2013-01-29 14:37:00,39.1,33.1,30.10,WSW,248,1.1,2.5,79,0.00,,,0.00,WUHU216HW,2013-01-29 22:37:00,
2013-01-29 14:42:00,39.1,33.1,30.10,West,270,1.6,2.7,79,0.00,,,0.00,WUHU216HW,2013-01-29 22:42:00,
2013-01-29 14:48:00,39.1,33.1,30.10,WSW,248,0.0,2.7,79,0.00,,,0.00,WUHU216HW,2013-01-29 22:48:00,
2013-01-29 14:53:00,38.9,32.9,30.10,WSW,248,1.1,2.5,79,0.00,,,0.00,WUHU216HW,2013-01-29 22:53:00,
2013-01-29 14:58:00,38.9,33.3,30.11,WSW,248,1.1,2.7,80,0.00,,,0.00,WUHU216HW,2013-01-29 22:58:00,
2013-01-29 15:03:00,38.9,32.9,30.10,North,0,1.1,2.7,79,0.00,,,0.00,WUHU216HW,2013-01-29 23:03:00,
2013-01-29 15:08:00,38.7,32.8,30.10,West,270,1.3,2.5,79,0.00,,,0.00,WUHU216HW,2013-01-29 23:08:00,
2013-01-29 15:13:00,38.5,32.6,30.10,West,270,1.6,2.7,79,0.00,,,0.00,WUHU216HW,2013-01-29 23:13:00,
2013-01-29 15:18:00,38.3,32.4,30.10,WNW,293,0.4,2.7,79,0.00,,,0.00,WUHU216HW,2013-01-29 23:18:00,
2013-01-29 15:23:00,38.2,32.6,30.10,West,270,0.2,2.0,80,0.00,,,0.00,WUHU216HW,2013-01-29 23:23:00,
2013-01-29 15:29:00,38.0,32.4,30.10,NW,315,0.2,2.0,80,0.00,,,0.00,WUHU216HW,2013-01-29 23:29:00,
2013-01-29 15:34:00,38.0,32.4,30.10,NW,315,0.4,1.8,80,0.00,,,0.00,WUHU216HW,2013-01-29 23:34:00,
2013-01-29 15:39:00,37.8,32.2,30.11,NW,315,0.0,0.4,80,0.00,,,0.00,WUHU216HW,2013-01-29 23:39:00,
2013-01-29 15:44:00,37.8,32.5,30.10,NW,315,0.0,0.4,81,0.00,,,0.00,WUHU216HW,2013-01-29 23:44:00,
2013-01-29 15:49:00,37.8,32.2,30.11,NW,315,0.0,0.2,80,0.00,,,0.00,WUHU216HW,2013-01-29 23:49:00,
2013-01-29 15:54:00,37.6,32.3,30.11,NW,315,0.0,0.0,81,0.00,,,0.00,WUHU216HW,2013-01-29 23:54:00,
2013-01-29 15:59:00,37.4,32.1,30.11,NW,315,0.0,0.0,81,0.00,,,0.00,WUHU216HW,2013-01-29 23:59:00,
2013-01-29 16:04:00,37.4,32.1,30.11,North,0,0.0,0.4,81,0.00,,,0.00,WUHU216HW,2013-01-30 00:04:00,
2013-01-29 16:10:00,37.1,31.8,30.10,North,0,0.0,0.9,81,0.00,,,0.00,WUHU216HW,2013-01-30 00:10:00,
2013-01-29 16:15:00,37.1,32.0,30.10,North,0,0.7,2.0,82,0.00,,,0.00,WUHU216HW,2013-01-30 00:15:00,
2013-01-29 16:20:00,36.9,31.9,30.10,NNE,23,0.0,2.0,82,0.00,,,0.00,WUHU216HW,2013-01-30 00:20:00,
2013-01-29 16:25:00,36.7,31.7,30.10,NNE,23,0.0,0.9,82,0.00,,,0.00,WUHU216HW,2013-01-30 00:25:00,
2013-01-29 16:30:00,36.7,31.7,30.10,NNE,23,0.0,0.0,82,0.00,,,0.00,WUHU216HW,2013-01-30 00:30:00,
2013-01-29 16:35:00,36.5,31.5,30.10,NNE,23,0.0,0.0,82,0.00,,,0.00,WUHU216HW,2013-01-30 00:35:00,
2013-01-29 16:40:00,36.4,31.7,30.10,NNE,23,1.6,1.6,83,0.00,,,0.00,WUHU216HW,2013-01-30 00:40:00,
2013-01-29 16:46:00,36.4,31.7,30.11,NNE,23,0.0,1.6,83,0.00,,,0.00,WUHU216HW,2013-01-30 00:46:00,
2013-01-29 16:51:00,36.4,31.7,30.11,NNE,23,0.0,1.1,83,0.00,,,0.00,WUHU216HW,2013-01-30 00:51:00,
2013-01-29 16:56:00,36.2,31.5,30.11,NNE,23,0.0,1.1,83,0.00,,,0.00,WUHU216HW,2013-01-30 00:56:00,
2013-01-29 17:01:00,36.0,31.3,30.11,East,90,0.0,1.1,83,0.00,,,0.00,WUHU216HW,2013-01-30 01:01:00,
2013-01-29 17:06:00,36.0,31.3,30.11,ENE,68,0.2,1.1,83,0.00,,,0.00,WUHU216HW,2013-01-30 01:06:00,
2013-01-29 17:11:00,35.8,31.2,30.11,NW,315,0.4,1.8,83,0.00,,,0.00,WUHU216HW,2013-01-30 01:11:00,
2013-01-29 17:16:00,35.6,31.0,30.11,NNW,338,0.4,1.8,83,0.00,,,0.00,WUHU216HW,2013-01-30 01:16:00,
2013-01-29 17:21:00,35.6,31.2,30.11,SE,135,1.1,1.1,84,0.00,,,0.00,WUHU216HW,2013-01-30 01:21:00,
2013-01-29 17:27:00,35.6,31.2,30.11,SW,225,0.0,1.1,84,0.00,,,0.00,WUHU216HW,2013-01-30 01:27:00,
2013-01-29 17:32:00,35.5,31.1,30.11,SW,225,0.0,1.1,84,0.00,,,0.00,WUHU216HW,2013-01-30 01:32:00,
2013-01-29 17:37:00,35.1,30.7,30.12,SW,225,0.0,1.1,84,0.00,,,0.00,WUHU216HW,2013-01-30 01:37:00,
2013-01-29 17:42:00,34.9,30.5,30.12,WSW,248,0.4,0.7,84,0.00,,,0.00,WUHU216HW,2013-01-30 01:42:00,
2013-01-29 17:47:00,34.9,30.5,30.12,SW,225,0.2,2.7,84,0.00,,,0.00,WUHU216HW,2013-01-30 01:47:00,
2013-01-29 17:52:00,34.9,30.5,30.12,SSE,158,0.4,3.4,84,0.00,,,0.00,WUHU216HW,2013-01-30 01:52:00,
2013-01-29 17:57:00,34.7,30.3,30.12,SW,225,0.0,3.4,84,0.00,,,0.00,WUHU216HW,2013-01-30 01:57:00,
2013-01-29 18:02:00,34.6,30.2,30.12,WSW,248,0.2,1.1,84,0.00,,,0.00,WUHU216HW,2013-01-30 02:02:00,
2013-01-29 18:08:00,34.6,30.4,30.12,WSW,248,0.0,1.1,85,0.00,,,0.00,WUHU216HW,2013-01-30 02:08:00,
2013-01-29 18:13:00,34.6,30.2,30.12,WSW,248,0.2,0.9,84,0.00,,,0.00,WUHU216HW,2013-01-30 02:13:00,
2013-01-29 18:18:00,34.4,30.0,30.12,West,270,0.0,0.9,84,0.00,,,0.00,WUHU216HW,2013-01-30 02:18:00,
2013-01-29 18:23:00,34.2,30.1,30.12,West,270,0.2,0.9,85,0.00,,,0.00,WUHU216HW,2013-01-30 02:23:00,
2013-01-29 18:28:00,34.2,30.1,30.12,WSW,248,0.2,0.7,85,0.00,,,0.00,WUHU216HW,2013-01-30 02:28:00,
2013-01-29 18:33:00,34.0,29.9,30.11,West,270,0.7,0.9,85,0.00,,,0.00,WUHU216HW,2013-01-30 02:33:00,
2013-01-29 18:38:00,33.8,30.0,30.11,NNW,338,0.4,0.9,86,0.00,,,0.00,WUHU216HW,2013-01-30 02:38:00,
2013-01-29 18:43:00,33.7,29.8,30.11,NNW,338,0.0,0.9,86,0.00,,,0.00,WUHU216HW,2013-01-30 02:43:00,
2013-01-29 18:49:00,33.5,29.7,30.11,NNW,338,0.4,0.7,86,0.00,,,0.00,WUHU216HW,2013-01-30 02:49:00,
2013-01-29 18:54:00,33.5,29.7,30.11,NNW,338,0.2,1.1,86,0.00,,,0.00,WUHU216HW,2013-01-30 02:54:00,
2013-01-29 18:59:00,33.5,30.0,30.11,NNW,338,1.1,1.8,87,0.00,,,0.00,WUHU216HW,2013-01-30 02:59:00,
2013-01-29 19:04:00,33.3,30.1,30.10,NNW,338,1.1,1.8,88,0.00,,,0.00,WUHU216HW,2013-01-30 03:04:00,
2013-01-29 19:09:00,33.1,29.9,30.10,NNW,338,0.4,1.8,88,0.00,,,0.00,WUHU216HW,2013-01-30 03:09:00,
2013-01-29 19:14:00,33.1,29.9,30.10,NNW,338,0.2,1.6,88,0.00,,,0.00,WUHU216HW,2013-01-30 03:14:00,
2013-01-29 19:19:00,33.1,30.3,30.10,NNW,338,0.4,1.3,89,0.00,,,0.00,WUHU216HW,2013-01-30 03:19:00,
2013-01-29 19:24:00,32.9,30.1,30.10,NNW,338,0.4,1.3,89,0.00,,,0.00,WUHU216HW,2013-01-30 03:24:00,
2013-01-29 19:30:00,32.9,30.1,30.10,NNW,338,0.0,1.1,89,0.00,,,0.00,WUHU216HW,2013-01-30 03:30:00,
2013-01-29 19:35:00,32.9,30.1,30.10,NNW,338,0.0,0.7,89,0.00,,,0.00,WUHU216HW,2013-01-30 03:35:00,
2013-01-29 19:40:00,32.9,30.1,30.10,NNW,338,0.0,0.0,89,0.00,,,0.00,WUHU216HW,2013-01-30 03:40:00,
2013-01-29 19:45:00,32.9,30.1,30.10,NNW,338,0.0,0.2,89,0.00,,,0.00,WUHU216HW,2013-01-30 03:45:00,
2013-01-29 19:50:00,32.8,30.2,30.10,NNW,338,0.0,0.2,90,0.00,,,0.00,WUHU216HW,2013-01-30 03:50:00,
2013-01-29 19:55:00,32.8,30.2,30.10,NNW,338,0.0,0.0,90,0.00,,,0.00,WUHU216HW,2013-01-30 03:55:00,
2013-01-29 20:00:00,32.8,30.2,30.10,NNW,338,0.0,0.0,90,0.00,,,0.00,WUHU216HW,2013-01-30 04:00:00,
2013-01-29 20:06:00,32.8,30.4,30.10,NNW,338,0.0,0.0,91,0.00,,,0.00,WUHU216HW,2013-01-30 04:06:00,
2013-01-29 20:11:00,32.8,30.4,30.09,NNW,338,0.0,0.0,91,0.00,,,0.00,WUHU216HW,2013-01-30 04:11:00,
2013-01-29 20:16:00,32.8,30.4,30.09,NNW,338,0.0,0.0,91,0.00,,,0.00,WUHU216HW,2013-01-30 04:16:00,
2013-01-29 20:21:00,32.8,30.7,30.09,NNW,338,0.0,0.0,92,0.00,,,0.00,WUHU216HW,2013-01-30 04:21:00,
2013-01-29 20:26:00,32.8,30.7,30.09,NNW,338,1.1,2.2,92,0.00,,,0.00,WUHU216HW,2013-01-30 04:26:00,
2013-01-29 20:31:00,32.8,30.7,30.08,NNW,338,1.6,2.2,92,0.00,,,0.00,WUHU216HW,2013-01-30 04:31:00,
2013-01-29 20:36:00,32.8,30.7,30.09,NNW,338,0.4,2.0,92,0.00,,,0.00,WUHU216HW,2013-01-30 04:36:00,
2013-01-29 20:41:00,32.8,30.7,30.08,NNW,338,0.0,2.2,92,0.00,,,0.00,WUHU216HW,2013-01-30 04:41:00,
2013-01-29 20:47:00,32.8,30.7,30.08,NNW,338,0.0,2.2,92,0.00,,,0.00,WUHU216HW,2013-01-30 04:47:00,
2013-01-29 20:52:00,32.8,30.7,30.08,NNW,338,0.9,2.2,92,0.00,,,0.00,WUHU216HW,2013-01-30 04:52:00,
2013-01-29 20:57:00,32.8,30.7,30.08,NNW,338,0.7,2.2,92,0.00,,,0.00,WUHU216HW,2013-01-30 04:57:00,
2013-01-29 21:02:00,32.8,30.7,30.08,NNW,338,1.1,1.6,92,0.00,,,0.00,WUHU216HW,2013-01-30 05:02:00,
2013-01-29 21:07:00,32.8,30.7,30.08,NNW,338,0.4,1.6,92,0.00,,,0.00,WUHU216HW,2013-01-30 05:07:00,
2013-01-29 21:12:00,32.8,30.7,30.08,NNW,338,0.2,1.1,92,0.00,,,0.00,WUHU216HW,2013-01-30 05:12:00,
2013-01-29 21:17:00,32.8,30.7,30.07,NNW,338,0.4,1.3,92,0.00,,,0.00,WUHU216HW,2013-01-30 05:17:00,
2013-01-29 21:22:00,32.9,30.9,30.07,NNW,338,0.0,1.3,92,0.00,,,0.00,WUHU216HW,2013-01-30 05:22:00,
2013-01-29 21:28:00,32.9,30.9,30.08,NNW,338,0.0,1.3,92,0.00,,,0.00,WUHU216HW,2013-01-30 05:28:00,
2013-01-29 21:33:00,33.1,31.1,30.08,NNW,338,0.0,1.3,92,0.00,,,0.00,WUHU216HW,2013-01-30 05:33:00,
2013-01-29 21:38:00,33.1,31.1,30.07,NNW,338,0.2,2.5,92,0.00,,,0.00,WUHU216HW,2013-01-30 05:38:00,
2013-01-29 21:43:00,33.1,31.1,30.07,NNW,338,0.0,2.5,92,0.00,,,0.00,WUHU216HW,2013-01-30 05:43:00,
2013-01-29 21:48:00,33.1,31.1,30.07,North,0,0.0,1.3,92,0.00,,,0.00,WUHU216HW,2013-01-30 05:48:00,
2013-01-29 21:53:00,33.1,31.1,30.07,North,0,0.0,0.9,92,0.00,,,0.00,WUHU216HW,2013-01-30 05:53:00,
2013-01-29 21:58:00,33.1,31.1,30.07,North,0,0.0,1.1,92,0.00,,,0.00,WUHU216HW,2013-01-30 05:58:00,
2013-01-29 22:03:00,33.1,31.1,30.07,North,0,0.0,1.1,92,0.00,,,0.00,WUHU216HW,2013-01-30 06:03:00,
2013-01-29 22:09:00,33.1,31.1,30.06,North,0,0.0,0.4,92,0.00,,,0.00,WUHU216HW,2013-01-30 06:09:00,
2013-01-29 22:14:00,33.1,31.1,30.07,North,0,0.0,0.4,92,0.00,,,0.00,WUHU216HW,2013-01-30 06:14:00,
2013-01-29 22:19:00,33.1,31.1,30.06,North,0,0.0,0.7,92,0.00,,,0.00,WUHU216HW,2013-01-30 06:19:00,
2013-01-29 22:24:00,33.1,31.1,30.06,North,0,0.0,0.7,92,0.00,,,0.00,WUHU216HW,2013-01-30 06:24:00,
2013-01-29 22:29:00,33.1,31.1,30.06,North,0,0.0,0.0,92,0.00,,,0.00,WUHU216HW,2013-01-30 06:29:00,
2013-01-29 22:34:00,33.3,31.1,30.06,North,0,0.0,0.0,92,0.00,,,0.00,WUHU216HW,2013-01-30 06:34:00,
2013-01-29 22:39:00,33.3,31.1,30.07,North,0,0.7,1.1,92,0.00,,,0.00,WUHU216HW,2013-01-30 06:39:00,
2013-01-29 22:45:00,33.3,31.1,30.06,North,0,0.4,2.5,92,0.00,,,0.00,WUHU216HW,2013-01-30 06:45:00,
2013-01-29 22:50:00,33.3,31.1,30.06,North,0,0.0,2.5,92,0.00,,,0.00,WUHU216HW,2013-01-30 06:50:00,
2013-01-29 22:55:00,33.3,31.1,30.06,North,0,0.0,1.3,92,0.00,,,0.00,WUHU216HW,2013-01-30 06:55:00,
2013-01-29 23:00:00,33.3,31.1,30.06,North,0,0.0,1.3,92,0.00,,,0.00,WUHU216HW,2013-01-30 07:00:00,
2013-01-29 23:05:00,33.3,31.1,30.06,North,0,0.0,1.1,92,0.00,,,0.00,WUHU216HW,2013-01-30 07:05:00,
2013-01-29 23:10:00,33.1,31.1,30.07,North,0,0.0,1.1,92,0.00,,,0.00,WUHU216HW,2013-01-30 07:10:00,
2013-01-29 23:15:00,33.3,31.1,30.06,North,0,0.0,1.1,92,0.00,,,0.00,WUHU216HW,2013-01-30 07:15:00,
2013-01-29 23:20:00,33.3,31.1,30.06,North,0,0.0,1.1,92,0.00,,,0.00,WUHU216HW,2013-01-30 07:20:00,
2013-01-29 23:25:00,33.3,31.1,30.06,North,0,0.0,0.0,92,0.00,,,0.00,WUHU216HW,2013-01-30 07:25:00,
2013-01-29 23:31:00,33.3,31.1,30.06,North,0,0.0,0.7,92,0.00,,,0.00,WUHU216HW,2013-01-30 07:31:00,
2013-01-29 23:36:00,33.3,31.1,30.06,North,0,0.0,0.9,92,0.00,,,0.00,WUHU216HW,2013-01-30 07:36:00,
2013-01-29 23:41:00,33.3,31.1,30.06,North,0,0.0,0.9,92,0.00,,,0.00,WUHU216HW,2013-01-30 07:41:00,
2013-01-29 23:46:00,33.5,31.3,30.06,North,0,0.0,0.0,92,0.00,,,0.00,WUHU216HW,2013-01-30 07:46:00,
2013-01-29 23:51:00,33.5,31.3,30.07,North,0,0.0,0.0,92,0.00,,,0.00,WUHU216HW,2013-01-30 07:51:00,
2013-01-29 23:56:00,33.5,31.3,30.07,North,0,0.4,0.4,92,0.00,,,0.00,WUHU216HW,2013-01-30 07:56:00,